N803RL -KASE

Flight info

Callsign N803RL
Flight time N/A
Altitude VFR
Route
Aircraft RV8/L-DOV/C

Departure

Time N/A
Airport -

Arrival

Time 2026-04-22 01:14
Airport Aspen-Pitkin County Airport (Sardy Field) (KASE)
Time Latitude Longitude Altitude Speed Heading
2026-04-22 01:05 39.10212 -106.55330 13068 ft 167 kts 323°
2026-04-22 01:06 39.11142 -106.56235 13033 ft 168 kts 309°
2026-04-22 01:06 39.11717 -106.57471 13149 ft 157 kts 282°
2026-04-22 01:06 39.11795 -106.58861 12979 ft 158 kts 259°
2026-04-22 01:06 39.11588 -106.60224 12677 ft 153 kts 256°
2026-04-22 01:07 39.11690 -106.61648 12259 ft 170 kts 285°
2026-04-22 01:07 39.12212 -106.63017 12176 ft 164 kts 291°
2026-04-22 01:07 39.12687 -106.64262 12206 ft 152 kts 290°
2026-04-22 01:07 39.12946 -106.65554 12074 ft 153 kts 272°
2026-04-22 01:08 39.12872 -106.66934 11948 ft 154 kts 256°
2026-04-22 01:08 39.12545 -106.68212 11900 ft 147 kts 244°
2026-04-22 01:08 39.11987 -106.69341 11670 ft 156 kts 232°
2026-04-22 01:08 39.11184 -106.70325 11227 ft 154 kts 218°
2026-04-22 01:09 39.10779 -106.71168 11562 ft 122 kts 275°
2026-04-22 01:09 39.11452 -106.72276 10702 ft 189 kts 324°
2026-04-22 01:09 39.12418 -106.72891 11167 ft 103 kts 313°
2026-04-22 01:09 39.12771 -106.73949 10420 ft 166 kts 279°
2026-04-22 01:10 39.13054 -106.75473 10183 ft 171 kts 287°
2026-04-22 01:10 39.13609 -106.76673 10160 ft 140 kts 314°
2026-04-22 01:10 39.14449 -106.77599 9552 ft 174 kts 323°
2026-04-22 01:10 39.15550 -106.78370 9365 ft 177 kts 333°
2026-04-22 01:11 39.16662 -106.79037 9397 ft 172 kts 326°
2026-04-22 01:11 39.17620 -106.79870 9574 ft 163 kts 318°
2026-04-22 01:11 39.18521 -106.80797 9520 ft 165 kts 315°
2026-04-22 01:11 39.19351 -106.81784 9463 ft 158 kts 311°
2026-04-22 01:12 39.20102 -106.82754 9417 ft 152 kts 313°
2026-04-22 01:12 39.20942 -106.83630 9444 ft 159 kts 318°
2026-04-22 01:12 39.21934 -106.84380 9490 ft 164 kts 330°
2026-04-22 01:12 39.22899 -106.84887 9440 ft 137 kts 336°
2026-04-22 01:13 39.23677 -106.85310 9356 ft 108 kts 316°
2026-04-22 01:13 39.24053 -106.86025 9032 ft 95 kts 295°
2026-04-22 01:13 39.24042 -106.86804 8672 ft 79 kts 273°
2026-04-22 01:13 39.23752 -106.87328 8076 ft 77 kts 228°
2026-04-22 01:14 39.23212 -106.87307 7701 ft 67 kts 174°
2026-04-22 01:14 39.22920 -106.87169 7706 ft 23 kts 156°
2026-04-22 01:14 39.22899 -106.87075 7709 ft 15 kts 78°
2026-04-22 01:14 39.22898 -106.87042 7710 ft 1 kts 139°
2026-04-22 01:15 39.22850 -106.87023 7714 ft 10 kts 162°
2026-04-22 01:15 39.22757 -106.86976 7722 ft 18 kts 155°
2026-04-22 01:15 39.22614 -106.86905 7731 ft 25 kts 163°
2026-04-22 01:15 39.22446 -106.86826 7740 ft 23 kts 160°
2026-04-22 01:16 39.22326 -106.86771 7748 ft 15 kts 158°
2026-04-22 01:16 39.22238 -106.86730 7754 ft 13 kts 162°
2026-04-22 01:16 39.22149 -106.86688 7762 ft 12 kts 156°
2026-04-22 01:16 39.22125 -106.86675 7764 ft 0 kts 159°
2026-04-22 01:17 39.22110 -106.86667 7766 ft 0 kts 159°
2026-04-22 01:18 39.22107 -106.86666 7766 ft 6 kts 159°
2026-04-22 01:18 39.22003 -106.86614 7777 ft 20 kts 160°
2026-04-22 01:18 39.21833 -106.86540 7792 ft 31 kts 158°
2026-04-22 01:19 39.21646 -106.86445 7808 ft 26 kts 159°
2026-04-22 01:19 39.21474 -106.86366 7819 ft 27 kts 161°
2026-04-22 01:19 39.21335 -106.86301 7830 ft 17 kts 159°
2026-04-22 01:19 39.21226 -106.86250 7835 ft 7 kts 181°
2026-04-22 01:20 39.21214 -106.86253 7836 ft 0 kts 199°
2026-04-22 01:21 39.21185 -106.86292 7834 ft 12 kts 263°
2026-04-22 01:21 39.21261 -106.86384 7832 ft 23 kts 339°
2026-04-22 01:22 39.21603 -106.86537 7811 ft 82 kts 329°
2026-04-22 01:22 39.22269 -106.86867 7856 ft 120 kts 342°
2026-04-22 01:22 39.23100 -106.87013 8146 ft 136 kts
2026-04-22 01:22 39.24105 -106.86911 8346 ft 152 kts
2026-04-22 01:23 39.25190 -106.87001 8381 ft 159 kts 343°
2026-04-22 01:23 39.26251 -106.87491 8366 ft 164 kts 336°
2026-04-22 01:23 39.27320 -106.87988 8424 ft 158 kts 337°
2026-04-22 01:23 39.28357 -106.88475 8477 ft 162 kts 331°
2026-04-22 01:24 39.29075 -106.89608 8271 ft 163 kts 287°
2026-04-22 01:24 39.29456 -106.91034 8028 ft 169 kts 285°
2026-04-22 01:24 39.29930 -106.92392 8080 ft 165 kts 300°
2026-04-22 01:24 39.30836 -106.93338 8100 ft 175 kts 330°